Weather History for Blakely, GA

Change the Weather History Date:

Thursday, November 14, 2013

  Actual Average (KDHN) Record (KDHN)
Temperature  
Mean Temperature 45 °F 59 °F  
Max Temperature 62 °F 72 °F 84 °F (1955)
Min Temperature 28 °F 47 °F 30 °F (1963)
Degree Days  
Heating Degree Days 20 7  
Month to date heating degree days 76  
Since 1 July heating degree days 135  
Moisture  
Dew Point 37 °F    
Average Humidity 76    
Maximum Humidity 100    
Minimum Humidity 48    
Precipitation  
Precipitation 0.00 in 0.14 in 1.94 in (1957)
Month to date precipitation 1.52  
Year to date precipitation 46.91  
Sea Level Pressure  
Sea Level Pressure 30.37 in    
Wind  
Wind Speed 2 mph (ENE)    
Max Wind Speed 9 mph    
Max Gust Speed -    
Visibility 10 miles    
Events      
T = Trace of Precipitation, MM = Missing Value Source: NWS Daily Summary

Daily Weather History Graph

Daily Weather History Graph

Search for Another Location

Airport:

Trip Planner

Search our weather history database for the weather conditions in past years. The results will help you decide how hot, cold, wet, or windy it might be!

Date:

Astronomy

Nov. 14, 2013 Rise Set
Actual Time 7:06 AM EST 5:41 PM EST
Civil Twilight 6:40 AM EST 6:06 PM EST
Nautical Twilight 6:11 AM EST 6:36 PM EST
Astronomical Twilight 5:42 AM EST 7:05 PM EST
Moon 3:53 PM EST (11/14) 4:11 AM EST (11/14)
Length of Visible Light 11h 26m
Length of Day
10h 34m
Waxing Gibbous, 91% of the Moon is Illuminated
Nov 14
Waxing Gibbous
Nov 17
Full
Nov 25
Last Quarter
Dec 2
New
Dec 9
First Quarter

Hourly Weather History & Observations

Time (EST) Temp. Windchill Dew Point Humidity Pressure Visibility Wind Dir Wind Speed Gust Speed Precip Events Conditions
12:15 AM 30.2 °F - 28.4 °F 93% 30.46 in 10.0 mi Calm Calm - N/A   Clear
12:35 AM 30.2 °F - 28.4 °F 93% 30.46 in 10.0 mi Calm Calm - N/A   Clear
12:55 AM 30.2 °F - 28.4 °F 93% 30.45 in 10.0 mi Calm Calm - N/A   Clear
1:15 AM 30.2 °F - 28.4 °F 93% 30.45 in 10.0 mi Calm Calm - N/A   Clear
1:35 AM 30.2 °F - 28.4 °F 93% 30.45 in 10.0 mi Calm Calm - N/A   Clear
1:55 AM 30.2 °F - 28.4 °F 93% 30.44 in 10.0 mi Calm Calm - N/A   Clear
2:15 AM 28.4 °F - 28.4 °F 100% 30.44 in 10.0 mi Calm Calm - N/A   Clear
2:35 AM 30.2 °F - 28.4 °F 93% 30.44 in 10.0 mi Calm Calm - N/A   Clear
2:55 AM 30.2 °F - 28.4 °F 93% 30.44 in 10.0 mi Calm Calm - N/A   Clear
3:15 AM 30.2 °F - 28.4 °F 93% 30.44 in 10.0 mi Calm Calm - N/A   Clear
3:35 AM 28.4 °F - 28.4 °F 100% 30.44 in 10.0 mi Calm Calm - N/A   Clear
3:55 AM 28.4 °F - 26.6 °F 93% 30.43 in 10.0 mi Calm Calm - N/A   Clear
4:15 AM 30.2 °F 26.7 °F 28.4 °F 93% 30.43 in 10.0 mi NNE 3.5 mph - N/A   Clear
4:35 AM 30.2 °F - 26.6 °F 86% 30.43 in 10.0 mi Calm Calm - N/A   Clear
4:55 AM 30.2 °F - 26.6 °F 86% 30.43 in 10.0 mi Calm Calm - N/A   Clear
5:15 AM 30.2 °F - 26.6 °F 86% 30.43 in 10.0 mi Calm Calm - N/A   Clear
5:35 AM 32.0 °F - 26.6 °F 80% 30.43 in 10.0 mi Calm Calm - N/A   Clear
5:55 AM 30.2 °F - 26.6 °F 86% 30.43 in 10.0 mi Calm Calm - N/A   Clear
6:15 AM 32.0 °F - 26.6 °F 80% 30.43 in 10.0 mi Calm Calm - N/A   Clear
6:35 AM 32.0 °F - 26.6 °F 80% 30.44 in 10.0 mi Calm Calm - N/A   Clear
6:55 AM 30.2 °F - 26.6 °F 86% 30.44 in 10.0 mi Calm Calm - N/A   Clear
7:15 AM 32.0 °F - 26.6 °F 80% 30.44 in 10.0 mi Calm Calm - N/A   Clear
7:35 AM 32.0 °F - 26.6 °F 80% 30.44 in 10.0 mi Calm Calm - N/A   Clear
7:55 AM 33.8 °F 30.8 °F 28.4 °F 81% 30.44 in 10.0 mi NE 3.5 mph - N/A   Clear
8:15 AM 35.6 °F 32.8 °F 28.4 °F 75% 30.45 in 10.0 mi NE 3.5 mph - N/A   Clear
8:35 AM 37.4 °F 34.9 °F 30.2 °F 75% 30.45 in 10.0 mi ENE 3.5 mph - N/A   Clear
8:55 AM 41.0 °F 38.0 °F 30.2 °F 65% 30.45 in 10.0 mi ENE 4.6 mph - N/A   Clear
9:15 AM 42.8 °F 39.3 °F 30.2 °F 61% 30.46 in 10.0 mi ENE 5.8 mph - N/A   Clear
9:35 AM 44.6 °F 40.2 °F 32.0 °F 61% 30.46 in 10.0 mi ENE 8.1 mph - N/A   Clear
9:55 AM 46.4 °F 42.4 °F 32.0 °F 57% 30.46 in 10.0 mi East 8.1 mph - N/A   Clear
10:15 AM 50.0 °F - 33.8 °F 54% 30.46 in 10.0 mi NE 6.9 mph - N/A   Clear
10:35 AM 50.0 °F - 35.6 °F 58% 30.45 in 10.0 mi East 6.9 mph - N/A   Clear
10:55 AM 51.8 °F - 35.6 °F 54% 30.45 in 10.0 mi ENE 5.8 mph - N/A   Clear
11:15 AM 53.6 °F - 35.6 °F 51% 30.44 in 10.0 mi East 6.9 mph - N/A   Clear
11:35 AM 55.4 °F - 37.4 °F 51% 30.43 in 10.0 mi ENE 8.1 mph - N/A   Clear
11:55 AM 55.4 °F - 39.2 °F 54% 30.42 in 10.0 mi East 9.2 mph - N/A   Clear
12:15 PM 59.0 °F - 41.0 °F 51% 30.40 in 10.0 mi East 8.1 mph - N/A   Clear
12:35 PM 59.0 °F - 41.0 °F 51% 30.39 in 10.0 mi East 5.8 mph - N/A   Clear
12:55 PM 60.8 °F - 41.0 °F 48% 30.38 in 10.0 mi East 4.6 mph - N/A   Clear
1:15 PM 60.8 °F - 42.8 °F 52% 30.36 in 10.0 mi NE 3.5 mph - N/A   Clear
1:35 PM 60.8 °F - 42.8 °F 52% 30.35 in 10.0 mi East 4.6 mph - N/A   Clear
1:55 PM 62.6 °F - 42.8 °F 48% 30.34 in 10.0 mi Calm Calm - N/A   Clear
2:15 PM 62.6 °F - 42.8 °F 48% 30.34 in 10.0 mi ENE 5.8 mph - N/A   Scattered Clouds
2:35 PM 62.6 °F - 44.6 °F 52% 30.33 in 10.0 mi East 6.9 mph - N/A   Clear
2:55 PM 62.6 °F - 44.6 °F 52% 30.32 in 10.0 mi Calm Calm - N/A   Clear
3:15 PM 62.6 °F - 44.6 °F 52% 30.31 in 10.0 mi SE 3.5 mph - N/A   Clear
3:35 PM 62.6 °F - 44.6 °F 52% 30.30 in 10.0 mi ESE 5.8 mph - N/A   Clear
3:55 PM 62.6 °F - 44.6 °F 52% 30.30 in 10.0 mi East 4.6 mph - N/A   Clear
4:15 PM 62.6 °F - 44.6 °F 52% 30.30 in 10.0 mi East 5.8 mph - N/A   Clear
4:35 PM 62.6 °F - 44.6 °F 52% 30.30 in 10.0 mi East 4.6 mph - N/A   Clear
4:55 PM 62.6 °F - 44.6 °F 52% 30.29 in 10.0 mi East 4.6 mph - N/A   Clear
5:15 PM 60.8 °F - 46.4 °F 59% 30.28 in 10.0 mi NE 3.5 mph - N/A   Clear
5:35 PM 57.2 °F - 46.4 °F 67% 30.29 in 10.0 mi Calm Calm - N/A   Clear
5:55 PM 55.4 °F - 46.4 °F 72% 30.29 in 10.0 mi Calm Calm - N/A   Clear
6:15 PM 51.8 °F - 46.4 °F 82% 30.28 in 10.0 mi Calm Calm - N/A   Clear
6:35 PM 50.0 °F - 46.4 °F 87% 30.28 in 10.0 mi Calm Calm - N/A   Clear
6:55 PM 50.0 °F - 46.4 °F 87% 30.28 in 10.0 mi Calm Calm - N/A   Clear
7:15 PM 50.0 °F - 44.6 °F 82% 30.29 in 10.0 mi Calm Calm - N/A   Clear
7:35 PM 46.4 °F - 44.6 °F 93% 30.29 in 10.0 mi Calm Calm - N/A   Clear
7:55 PM 46.4 °F - 44.6 °F 93% 30.29 in 10.0 mi Calm Calm - N/A   Clear
8:15 PM 46.4 °F - 44.6 °F 93% 30.29 in 10.0 mi Calm Calm - N/A   Clear
8:35 PM 46.4 °F - 44.6 °F 93% 30.29 in 10.0 mi Calm Calm - N/A   Clear
8:55 PM 44.6 °F - 44.6 °F 100% 30.29 in 10.0 mi Calm Calm - N/A   Clear
9:15 PM 44.6 °F - 42.8 °F 93% 30.29 in 10.0 mi Calm Calm - N/A   Clear
9:35 PM 44.6 °F - 44.6 °F 100% 30.29 in 10.0 mi Calm Calm - N/A   Clear
9:55 PM 44.6 °F - 44.6 °F 100% 30.28 in 10.0 mi Calm Calm - N/A   Clear
10:15 PM 44.6 °F - 44.6 °F 100% 30.28 in 10.0 mi Calm Calm - N/A   Scattered Clouds
10:35 PM 46.4 °F - 44.6 °F 93% 30.28 in 10.0 mi Calm Calm - N/A   Mostly Cloudy
10:55 PM 46.4 °F - 44.6 °F 93% 30.28 in 10.0 mi Calm Calm - N/A   Overcast
11:15 PM 46.4 °F - 44.6 °F 93% 30.28 in 10.0 mi Calm Calm - N/A   Scattered Clouds
11:35 PM 48.2 °F - 44.6 °F 87% 30.28 in 10.0 mi Calm Calm - N/A   Scattered Clouds
11:55 PM 48.2 °F - 44.6 °F 87% 30.27 in 10.0 mi Calm Calm - N/A   Scattered Clouds